Springfield, MO

6:56 AM CST on December 15, 2019 (GMT -0600)
Springfield-Branson Regional

Weather History for KSGF - November, 2019

Change the Weather History Date:

Tuesday, November 19, 2019

  Actual Average Record
Temperature  
Mean Temperature 52 °F 44 °F  
Max Temperature 63 °F 55 °F 76 °F (1979)
Min Temperature 42 °F 34 °F 13 °F (1914)
Degree Days  
Heating Degree Days 12 21  
Month to date heating degree days 428 314  
Since 1 July heating degree days 762 622  
Cooling Degree Days 0 0  
Month to date cooling degree days 0 0  
Year to date cooling degree days 1687 1387  
Growing Degree Days 2 (Base 50)    
Moisture  
Dew Point 35 °F    
Average Humidity 57    
Maximum Humidity 76    
Minimum Humidity 30    
Precipitation  
Precipitation 0.00 in 0.14 in 1.19 in (1934)
Month to date precipitation 1.24 2.70  
Year to date precipitation 51.11 41.01  
Snow  
Snow 0.00 in - - ()
Month to date snowfall 0.4  
Since 1 July snowfall 0.4  
Since 1 September snowfall 0.4  
Snow Depth 0.00 in    
Sea Level Pressure  
Sea Level Pressure 29.92 in    
Wind  
Wind Speed 6 mph ()    
Max Wind Speed 15 mph    
Max Gust Speed 21 mph    
Visibility 10.0 miles    
Events      
T = Trace of Precipitation, MM = Missing Value Source: Averaged Metar Reports

Daily Weather History Graph

Daily Weather History Graph

Search for Another Location

Airport or City:

Astronomy

Nov. 19, 2019 Rise Set
Actual Time 6:56 AM CST 5:00 PM CST
Civil Twilight 6:28 AM CST 5:28 PM CST
Nautical Twilight 5:56 AM CST 6:00 PM CST
Astronomical Twilight 5:25 AM CST 6:31 PM CST
Moon 11:55 PM CST (11/19) 1:08 PM CST (11/19)
Length of Visible Light 11h 00m
Length of Day
10h 04m
Waning Gibbous, 51% of the Moon is Illuminated
Nov 19
Waning Gibbous
Nov 19
Last Quarter
Nov 26
New
Dec 4
First Quarter
Dec 11
Full

Hourly Weather History & Observations

Time (CST) Temp. Windchill Dew Point Humidity Pressure Visibility Wind Dir Wind Speed Gust Speed Precip Events Conditions
12:52 AM 52.0 °F - 37.0 °F 57% 29.77 in 10.0 mi WNW 8.1 mph - N/A   Clear
1:52 AM 50.0 °F - 37.0 °F 61% 29.79 in 10.0 mi WNW 8.1 mph - N/A   Clear
2:52 AM 46.0 °F 41.9 °F 36.0 °F 68% 29.81 in 10.0 mi NW 8.1 mph - N/A   Clear
3:52 AM 45.0 °F 41.8 °F 36.0 °F 71% 29.82 in 10.0 mi NW 5.8 mph - N/A   Clear
4:52 AM 46.0 °F 42.5 °F 36.0 °F 68% 29.83 in 10.0 mi WNW 6.9 mph - N/A   Clear
5:52 AM 43.0 °F 38.8 °F 36.0 °F 76% 29.86 in 10.0 mi WNW 6.9 mph - N/A   Clear
6:52 AM 43.0 °F 38.8 °F 36.0 °F 76% 29.89 in 10.0 mi WNW 6.9 mph - N/A   Clear
9:52 AM 52.0 °F - 39.9 °F 63% 29.97 in 10.0 mi NW 8.1 mph - N/A   Unknown
10:52 AM 55.0 °F - 39.9 °F 57% 29.98 in 10.0 mi WNW 6.9 mph - N/A   Clear
11:52 AM 59.0 °F - 39.0 °F 48% 29.96 in 10.0 mi WNW 6.9 mph - N/A   Clear
12:52 PM 60.1 °F - 37.9 °F 44% 29.94 in 10.0 mi Calm Calm - N/A   Clear
2:52 PM 63.0 °F - 35.1 °F 35% 29.94 in 10.0 mi Calm Calm - N/A   Clear
3:52 PM 63.0 °F - 30.9 °F 30% 29.94 in 10.0 mi NW 3.5 mph - N/A   Clear
4:52 PM 55.9 °F - 32.0 °F 40% 29.95 in 10.0 mi Calm Calm - N/A   Clear
5:52 PM 45.0 °F 43.5 °F 32.0 °F 60% 29.96 in 10.0 mi SE 3.5 mph - N/A   Clear
6:52 PM 45.0 °F 43.5 °F 32.0 °F 60% 29.97 in 10.0 mi SSE 3.5 mph - N/A   Clear
8:52 PM 46.0 °F 43.9 °F 30.9 °F 56% 29.99 in 10.0 mi SE 4.6 mph - N/A   Clear
9:52 PM 45.0 °F 40.6 °F 32.0 °F 60% 29.99 in 10.0 mi SE 8.1 mph - N/A   Clear
10:52 PM 46.0 °F 41.4 °F 32.0 °F 58% 29.99 in 10.0 mi SSE 9.2 mph - N/A   Clear
11:52 PM 46.0 °F 40.6 °F 32.0 °F 58% 30.00 in 10.0 mi SSE 11.5 mph - N/A   Clear